Location: ??
(34.9170°N, 135.5016°E)
Time: 00:45:10
(UTC+00:00)

RS-15 - Pass Details

Date: 24 April 2021
Orbit: 1888 x 2157 km, 64.8° (Epoch: 12 May)

Event Time Altitude Azimuth Distance (km) Brightness Sun altitude
Rises 19:19:42 0° 324° (NW) 5,586 10.3 -11.3°
Reaches altitude 10° 19:23:17 10° 318° (NW) 4,609 9.8 -10.6°
Maximum altitude 19:34:19 44° 253° (WSW) 2,776 8.4 -8.6°
Drops below altitude 10° 19:45:32 10° 186° (S) 4,657 9.7 -6.4°
Sets 19:49:13 0° 180° (S) 5,647 10.2 -5.7°
